Year,Month,Day,Hour,Minute,Value (Times are PST for windgust in km/hr)
2016,03,13,00,00,6.40
2016,03,13,00,01,4.80
2016,03,13,00,02,4.80
2016,03,13,00,03,3.20
2016,03,13,00,04,3.20
2016,03,13,00,05,4.80
2016,03,13,00,06,4.80
2016,03,13,00,07,4.80
2016,03,13,00,08,6.40
2016,03,13,00,09,6.40
2016,03,13,00,10,6.40
2016,03,13,00,11,4.80
2016,03,13,00,12,3.20
2016,03,13,00,13,3.20
2016,03,13,00,14,1.60
2016,03,13,00,15,3.20
2016,03,13,00,16,3.20
2016,03,13,00,17,3.20
2016,03,13,00,18,3.20
2016,03,13,00,19,1.60
2016,03,13,00,20,1.60
2016,03,13,00,23,1.60
2016,03,13,00,24,1.60
2016,03,13,00,25,1.60
2016,03,13,00,26,3.20
2016,03,13,00,27,3.20
2016,03,13,00,28,3.20
2016,03,13,00,29,3.20
2016,03,13,00,30,4.80
2016,03,13,00,31,4.80
2016,03,13,00,32,4.80
2016,03,13,00,33,4.80
2016,03,13,00,34,4.80
2016,03,13,00,35,4.80
2016,03,13,00,36,4.80
2016,03,13,00,37,3.20
2016,03,13,00,38,1.60
2016,03,13,00,39,1.60
2016,03,13,00,40,3.20
2016,03,13,00,41,3.20
2016,03,13,00,42,3.20
2016,03,13,00,43,1.60
2016,03,13,00,44,3.20
2016,03,13,00,45,3.20
2016,03,13,00,46,1.60
2016,03,13,00,49,1.60
2016,03,13,00,50,3.20
2016,03,13,00,51,3.20
2016,03,13,00,52,1.60
2016,03,13,00,53,1.60
2016,03,13,00,54,1.60
2016,03,13,00,55,8.10
2016,03,13,00,56,4.80
2016,03,13,00,57,8.10
2016,03,13,00,58,8.10
2016,03,13,00,59,11.30
2016,03,13,01,00,19.30
2016,03,13,01,01,16.10
2016,03,13,01,02,14.50
2016,03,13,01,03,16.10
2016,03,13,01,04,20.90
2016,03,13,01,05,20.90
2016,03,13,01,06,19.30
2016,03,13,01,07,19.30
2016,03,13,01,08,24.20
2016,03,13,01,09,16.10
2016,03,13,01,10,17.70
2016,03,13,01,11,14.50
2016,03,13,01,12,16.10
2016,03,13,01,13,22.50
2016,03,13,01,14,12.90
2016,03,13,01,15,11.30
2016,03,13,01,16,24.20
2016,03,13,01,17,20.90
2016,03,13,01,18,17.70
2016,03,13,01,19,20.90
2016,03,13,01,20,17.70
2016,03,13,01,21,17.70
2016,03,13,01,22,16.10
2016,03,13,01,23,19.30
2016,03,13,01,24,19.30
2016,03,13,01,25,25.70
2016,03,13,01,26,16.10
2016,03,13,01,27,9.60
2016,03,13,01,28,16.10
2016,03,13,01,29,14.50
2016,03,13,01,30,9.60
2016,03,13,01,31,17.70
2016,03,13,01,32,9.60
2016,03,13,01,33,6.40
2016,03,13,01,34,9.60
2016,03,13,01,35,6.40
2016,03,13,01,36,11.30
2016,03,13,01,37,9.60
2016,03,13,01,38,8.10
2016,03,13,01,39,11.30
2016,03,13,01,40,9.60
2016,03,13,01,41,6.40
2016,03,13,01,42,8.10
2016,03,13,01,43,6.40
2016,03,13,01,44,8.10
2016,03,13,01,45,9.60
2016,03,13,01,46,8.10
2016,03,13,01,47,11.30
2016,03,13,01,48,9.60
2016,03,13,01,49,12.90
2016,03,13,01,50,12.90
2016,03,13,01,51,4.80
2016,03,13,01,52,8.10
2016,03,13,01,53,9.60
2016,03,13,01,54,9.60
2016,03,13,01,55,9.60
2016,03,13,01,56,9.60
2016,03,13,01,57,11.30
2016,03,13,01,58,9.60
2016,03,13,01,59,14.50
2016,03,13,03,00,8.10
2016,03,13,03,01,9.60
2016,03,13,03,02,9.60
2016,03,13,03,03,14.50
2016,03,13,03,04,6.40
2016,03,13,03,05,8.10
2016,03,13,03,06,6.40
2016,03,13,03,07,6.40
2016,03,13,03,08,6.40
2016,03,13,03,09,8.10
2016,03,13,03,10,9.60
2016,03,13,03,11,4.80
2016,03,13,03,12,8.10
2016,03,13,03,13,9.60
2016,03,13,03,14,12.90
2016,03,13,03,15,8.10
2016,03,13,03,16,8.10
2016,03,13,03,17,9.60
2016,03,13,03,18,11.30
2016,03,13,03,19,14.50
2016,03,13,03,20,14.50
2016,03,13,03,21,11.30
2016,03,13,03,22,8.10
2016,03,13,03,23,6.40
2016,03,13,03,24,9.60
2016,03,13,03,25,14.50
2016,03,13,03,26,11.30
2016,03,13,03,27,12.90
2016,03,13,03,28,12.90
2016,03,13,03,29,24.20
2016,03,13,03,30,19.30
2016,03,13,03,31,20.90
2016,03,13,03,32,20.90
2016,03,13,03,33,17.70
2016,03,13,03,34,11.30
2016,03,13,03,35,14.50
2016,03,13,03,36,14.50
2016,03,13,03,37,22.50
2016,03,13,03,38,17.70
2016,03,13,03,39,14.50
2016,03,13,03,40,20.90
2016,03,13,03,41,17.70
2016,03,13,03,42,19.30
2016,03,13,03,43,22.50
2016,03,13,03,44,22.50
2016,03,13,03,45,25.70
2016,03,13,03,46,30.60
2016,03,13,03,47,35.40
2016,03,13,03,48,27.40
2016,03,13,03,49,16.10
2016,03,13,03,50,22.50
2016,03,13,03,51,37.00
2016,03,13,03,52,17.70
2016,03,13,03,53,24.20
2016,03,13,03,54,25.70
2016,03,13,03,55,20.90
2016,03,13,03,56,25.70
2016,03,13,03,57,22.50
2016,03,13,03,58,30.60
2016,03,13,03,59,27.40
2016,03,13,04,00,27.40
2016,03,13,04,01,30.60
2016,03,13,04,02,38.60
2016,03,13,04,03,33.80
2016,03,13,04,04,20.90
2016,03,13,04,05,22.50
2016,03,13,04,06,32.20
2016,03,13,04,07,38.60
2016,03,13,04,08,33.80
2016,03,13,04,09,17.70
2016,03,13,04,10,32.20
2016,03,13,04,11,30.60
2016,03,13,04,12,38.60
2016,03,13,04,13,30.60
2016,03,13,04,14,33.80
2016,03,13,04,15,27.40
2016,03,13,04,16,25.70
2016,03,13,04,17,32.20
2016,03,13,04,18,29.00
2016,03,13,04,19,29.00
2016,03,13,04,20,25.70
2016,03,13,04,21,29.00
2016,03,13,04,22,29.00
2016,03,13,04,23,43.50
2016,03,13,04,24,24.20
2016,03,13,04,25,33.80
2016,03,13,04,26,41.80
2016,03,13,04,27,32.20
2016,03,13,04,28,45.10
2016,03,13,04,29,40.20
2016,03,13,04,30,43.50
2016,03,13,04,31,37.00
2016,03,13,04,32,40.20
2016,03,13,04,33,37.00
2016,03,13,04,34,32.20
2016,03,13,04,35,29.00
2016,03,13,04,36,35.40
2016,03,13,04,37,35.40
2016,03,13,04,38,37.00
2016,03,13,04,39,32.20
2016,03,13,04,40,54.70
2016,03,13,04,41,33.80
2016,03,13,04,42,33.80
2016,03,13,04,43,48.30
2016,03,13,04,44,41.80
2016,03,13,04,45,35.40
2016,03,13,04,46,33.80
2016,03,13,04,47,30.60
2016,03,13,04,48,30.60
2016,03,13,04,49,38.60
2016,03,13,04,50,35.40
2016,03,13,04,51,35.40
2016,03,13,04,52,45.10
2016,03,13,04,53,37.00
2016,03,13,04,54,49.90
2016,03,13,04,55,38.60
2016,03,13,04,56,29.00
2016,03,13,04,57,27.40
2016,03,13,04,58,25.70
2016,03,13,04,59,32.20
2016,03,13,05,00,38.60
2016,03,13,05,01,45.10
2016,03,13,05,02,41.80
2016,03,13,05,03,40.20
2016,03,13,05,04,51.50
2016,03,13,05,05,33.80
2016,03,13,05,06,30.60
2016,03,13,05,07,41.80
2016,03,13,05,08,38.60
2016,03,13,05,09,41.80
2016,03,13,05,10,32.20
2016,03,13,05,11,54.70
2016,03,13,05,12,37.00
2016,03,13,05,13,38.60
2016,03,13,05,14,53.10
2016,03,13,05,15,48.30
2016,03,13,05,16,30.60
2016,03,13,05,17,40.20
2016,03,13,05,18,35.40
2016,03,13,05,19,46.70
2016,03,13,05,20,43.50
2016,03,13,05,21,35.40
2016,03,13,05,22,32.20
2016,03,13,05,23,35.40
2016,03,13,05,24,45.10
2016,03,13,05,25,27.40
2016,03,13,05,26,41.80
2016,03,13,05,27,53.10
2016,03,13,05,28,38.60
2016,03,13,05,29,43.50
2016,03,13,05,30,37.00
2016,03,13,05,31,48.30
2016,03,13,05,32,33.80
2016,03,13,05,33,38.60
2016,03,13,05,34,38.60
2016,03,13,05,35,40.20
2016,03,13,05,36,32.20
2016,03,13,05,37,27.40
2016,03,13,05,38,43.50
2016,03,13,05,39,38.60
2016,03,13,05,40,40.20
2016,03,13,05,41,45.10
2016,03,13,05,42,43.50
2016,03,13,05,43,35.40
2016,03,13,05,44,51.50
2016,03,13,05,45,53.10
2016,03,13,05,46,35.40
2016,03,13,05,47,32.20
2016,03,13,05,48,46.70
2016,03,13,05,49,51.50
2016,03,13,05,50,29.00
2016,03,13,05,51,29.00
2016,03,13,05,52,32.20
2016,03,13,05,53,27.40
2016,03,13,05,54,32.20
2016,03,13,05,55,30.60
2016,03,13,05,56,33.80
2016,03,13,05,57,33.80
2016,03,13,05,58,37.00
2016,03,13,05,59,43.50
2016,03,13,06,00,33.80
2016,03,13,06,01,40.20
2016,03,13,06,02,29.00
2016,03,13,06,03,43.50
2016,03,13,06,04,46.70
2016,03,13,06,05,43.50
2016,03,13,06,06,45.10
2016,03,13,06,07,43.50
2016,03,13,06,08,37.00
2016,03,13,06,09,33.80
2016,03,13,06,10,43.50
2016,03,13,06,11,33.80
2016,03,13,06,12,38.60
2016,03,13,06,13,38.60
2016,03,13,06,14,35.40
2016,03,13,06,15,38.60
2016,03,13,06,16,35.40
2016,03,13,06,17,37.00
2016,03,13,06,18,41.80
2016,03,13,06,19,41.80
2016,03,13,06,20,43.50
2016,03,13,06,21,53.10
2016,03,13,06,22,49.90
2016,03,13,06,23,38.60
2016,03,13,06,24,35.40
2016,03,13,06,25,43.50
2016,03,13,06,26,40.20
2016,03,13,06,27,49.90
2016,03,13,06,28,40.20
2016,03,13,06,29,29.00
2016,03,13,06,30,40.20
2016,03,13,06,31,41.80
2016,03,13,06,32,35.40
2016,03,13,06,33,32.20
2016,03,13,06,34,48.30
2016,03,13,06,35,35.40
2016,03,13,06,36,33.80
2016,03,13,06,37,33.80
2016,03,13,06,38,41.80
2016,03,13,06,39,38.60
2016,03,13,06,40,38.60
2016,03,13,06,41,33.80
2016,03,13,06,42,38.60
2016,03,13,06,43,35.40
2016,03,13,06,44,45.10
2016,03,13,06,45,38.60
2016,03,13,06,46,38.60
2016,03,13,06,47,32.20
2016,03,13,06,48,46.70
2016,03,13,06,49,51.50
2016,03,13,06,50,43.50
2016,03,13,06,51,43.50
2016,03,13,06,52,41.80
2016,03,13,06,53,32.20
2016,03,13,06,54,30.60
2016,03,13,06,55,45.10
2016,03,13,06,56,49.90
2016,03,13,06,57,33.80
2016,03,13,06,58,38.60
2016,03,13,06,59,43.50
2016,03,13,07,00,35.40
2016,03,13,07,01,43.50
2016,03,13,07,02,38.60
2016,03,13,07,03,41.80
2016,03,13,07,04,45.10
2016,03,13,07,05,33.80
2016,03,13,07,06,30.60
2016,03,13,07,07,35.40
2016,03,13,07,08,35.40
2016,03,13,07,09,32.20
2016,03,13,07,10,56.30
2016,03,13,07,11,48.30
2016,03,13,07,12,40.20
2016,03,13,07,13,48.30
2016,03,13,07,14,24.20
2016,03,13,07,15,33.80
2016,03,13,07,16,41.80
2016,03,13,07,17,41.80
2016,03,13,07,18,27.40
2016,03,13,07,19,43.50
2016,03,13,07,20,38.60
2016,03,13,07,21,40.20
2016,03,13,07,22,25.70
2016,03,13,07,23,43.50
2016,03,13,07,24,25.70
2016,03,13,07,25,37.00
2016,03,13,07,26,35.40
2016,03,13,07,27,40.20
2016,03,13,07,28,33.80
2016,03,13,07,29,25.70
2016,03,13,07,30,37.00
2016,03,13,07,31,27.40
2016,03,13,07,32,38.60
2016,03,13,07,33,37.00
2016,03,13,07,34,38.60
2016,03,13,07,35,48.30
2016,03,13,07,36,49.90
2016,03,13,07,37,43.50
2016,03,13,07,38,32.20
2016,03,13,07,39,40.20
2016,03,13,07,40,46.70
2016,03,13,07,41,43.50
2016,03,13,07,42,37.00
2016,03,13,07,43,30.60
2016,03,13,07,44,30.60
2016,03,13,07,45,46.70
2016,03,13,07,46,37.00
2016,03,13,07,47,46.70
2016,03,13,07,48,33.80
2016,03,13,07,49,38.60
2016,03,13,07,50,35.40
2016,03,13,07,51,40.20
2016,03,13,07,52,35.40
2016,03,13,07,53,32.20
2016,03,13,07,54,43.50
2016,03,13,07,55,35.40
2016,03,13,07,56,46.70
2016,03,13,07,57,40.20
2016,03,13,07,58,38.60
2016,03,13,07,59,45.10
2016,03,13,08,00,43.50
2016,03,13,08,01,38.60
2016,03,13,08,02,49.90
2016,03,13,08,03,49.90
2016,03,13,08,04,45.10
2016,03,13,08,05,32.20
2016,03,13,08,06,22.50
2016,03,13,08,07,33.80
2016,03,13,08,08,33.80
2016,03,13,08,09,32.20
2016,03,13,08,10,43.50
2016,03,13,08,11,27.40
2016,03,13,08,12,30.60
2016,03,13,08,13,51.50
2016,03,13,08,14,32.20
2016,03,13,08,15,41.80
2016,03,13,08,16,40.20
2016,03,13,08,17,33.80
2016,03,13,08,18,38.60
2016,03,13,08,19,33.80
2016,03,13,08,20,27.40
2016,03,13,08,21,32.20
2016,03,13,08,22,32.20
2016,03,13,08,23,27.40
2016,03,13,08,24,41.80
2016,03,13,08,25,29.00
2016,03,13,08,26,30.60
2016,03,13,08,27,32.20
2016,03,13,08,28,43.50
2016,03,13,08,29,20.90
2016,03,13,08,30,24.20
2016,03,13,08,31,45.10
2016,03,13,08,32,33.80
2016,03,13,08,33,27.40
2016,03,13,08,34,37.00
2016,03,13,08,35,32.20
2016,03,13,08,36,35.40
2016,03,13,08,37,38.60
2016,03,13,08,38,32.20
2016,03,13,08,39,29.00
2016,03,13,08,40,27.40
2016,03,13,08,41,30.60
2016,03,13,08,42,30.60
2016,03,13,08,43,32.20
2016,03,13,08,44,35.40
2016,03,13,08,45,30.60
2016,03,13,08,46,30.60
2016,03,13,08,47,25.70
2016,03,13,08,48,20.90
2016,03,13,08,49,40.20
2016,03,13,08,50,40.20
2016,03,13,08,51,41.80
2016,03,13,08,52,35.40
2016,03,13,08,53,30.60
2016,03,13,08,54,37.00
2016,03,13,08,55,30.60
2016,03,13,08,56,27.40
2016,03,13,08,57,20.90
2016,03,13,08,58,32.20
2016,03,13,08,59,35.40
2016,03,13,09,00,27.40
2016,03,13,09,01,41.80
2016,03,13,09,02,32.20
2016,03,13,09,03,24.20
2016,03,13,09,04,25.70
2016,03,13,09,05,37.00
2016,03,13,09,06,35.40
2016,03,13,09,07,41.80
2016,03,13,09,08,40.20
2016,03,13,09,09,29.00
2016,03,13,09,10,32.20
2016,03,13,09,11,33.80
2016,03,13,09,12,38.60
2016,03,13,09,13,48.30
2016,03,13,09,14,43.50
2016,03,13,09,15,45.10
2016,03,13,09,16,29.00
2016,03,13,09,17,22.50
2016,03,13,09,18,29.00
2016,03,13,09,19,30.60
2016,03,13,09,20,20.90
2016,03,13,09,21,38.60
2016,03,13,09,22,40.20
2016,03,13,09,23,35.40
2016,03,13,09,24,32.20
2016,03,13,09,25,30.60
2016,03,13,09,26,35.40
2016,03,13,09,27,40.20
2016,03,13,09,28,32.20
2016,03,13,09,29,35.40
2016,03,13,09,30,35.40
2016,03,13,09,31,24.20
2016,03,13,09,32,29.00
2016,03,13,09,33,33.80
2016,03,13,09,34,38.60
2016,03,13,09,35,45.10
2016,03,13,09,36,41.80
2016,03,13,09,37,46.70
2016,03,13,09,38,45.10
2016,03,13,09,39,49.90
2016,03,13,09,40,48.30
2016,03,13,09,41,51.50
2016,03,13,09,42,48.30
2016,03,13,09,43,53.10
2016,03,13,09,44,43.50
2016,03,13,09,45,48.30
2016,03,13,09,46,59.50
2016,03,13,09,47,35.40
2016,03,13,09,48,35.40
2016,03,13,09,49,38.60
2016,03,13,09,50,38.60
2016,03,13,09,51,37.00
2016,03,13,09,52,40.20
2016,03,13,09,53,32.20
2016,03,13,09,54,38.60
2016,03,13,09,55,25.70
2016,03,13,09,56,43.50
2016,03,13,09,57,38.60
2016,03,13,09,58,33.80
2016,03,13,09,59,35.40
2016,03,13,10,00,48.30
2016,03,13,10,01,32.20
2016,03,13,10,02,20.90
2016,03,13,10,03,37.00
2016,03,13,10,04,33.80
2016,03,13,10,05,35.40
2016,03,13,10,06,43.50
2016,03,13,10,07,38.60
2016,03,13,10,08,35.40
2016,03,13,10,09,27.40
2016,03,13,10,10,29.00
2016,03,13,10,11,33.80
2016,03,13,10,12,38.60
2016,03,13,10,13,38.60
2016,03,13,10,14,29.00
2016,03,13,10,15,25.70
2016,03,13,10,16,37.00
2016,03,13,10,17,37.00
2016,03,13,10,18,25.70
2016,03,13,10,19,24.20
2016,03,13,10,20,41.80
2016,03,13,10,21,27.40
2016,03,13,10,22,25.70
2016,03,13,10,23,27.40
2016,03,13,10,24,29.00
2016,03,13,10,25,33.80
2016,03,13,10,26,29.00
2016,03,13,10,27,35.40
2016,03,13,10,28,22.50
2016,03,13,10,29,32.20
2016,03,13,10,30,33.80
2016,03,13,10,31,35.40
2016,03,13,10,32,35.40
2016,03,13,10,33,40.20
2016,03,13,10,34,30.60
2016,03,13,10,35,33.80
2016,03,13,10,36,32.20
2016,03,13,10,37,30.60
2016,03,13,10,38,35.40
2016,03,13,10,39,35.40
2016,03,13,10,40,29.00
2016,03,13,10,41,25.70
2016,03,13,10,42,24.20
2016,03,13,10,43,40.20
2016,03,13,10,44,33.80
2016,03,13,10,45,30.60
2016,03,13,10,46,25.70
2016,03,13,10,47,27.40
2016,03,13,10,48,29.00
2016,03,13,10,49,43.50
2016,03,13,10,50,40.20
2016,03,13,10,51,27.40
2016,03,13,10,52,35.40
2016,03,13,10,53,37.00
2016,03,13,10,54,40.20
2016,03,13,10,55,33.80
2016,03,13,10,56,35.40
2016,03,13,10,57,30.60
2016,03,13,10,58,37.00
2016,03,13,10,59,37.00
2016,03,13,11,00,32.20
2016,03,13,11,01,27.40
2016,03,13,11,02,38.60
2016,03,13,11,03,30.60
2016,03,13,11,04,29.00
2016,03,13,11,05,27.40
2016,03,13,11,06,33.80
2016,03,13,11,07,30.60
2016,03,13,11,08,37.00
2016,03,13,11,09,33.80
2016,03,13,11,10,30.60
2016,03,13,11,11,25.70
2016,03,13,11,12,27.40
2016,03,13,11,13,33.80
2016,03,13,11,14,25.70
2016,03,13,11,15,37.00
2016,03,13,11,16,30.60
2016,03,13,11,17,37.00
2016,03,13,11,18,33.80
2016,03,13,11,19,35.40
2016,03,13,11,20,35.40
2016,03,13,11,21,35.40
2016,03,13,11,22,30.60
2016,03,13,11,23,32.20
2016,03,13,11,24,53.10
2016,03,13,11,25,37.00
2016,03,13,11,26,46.70
2016,03,13,11,27,33.80
2016,03,13,11,28,37.00
2016,03,13,11,29,43.50
2016,03,13,11,30,25.70
2016,03,13,11,31,46.70
2016,03,13,11,32,29.00
2016,03,13,11,33,40.20
2016,03,13,11,34,46.70
2016,03,13,11,35,45.10
2016,03,13,11,36,45.10
2016,03,13,11,37,41.80
2016,03,13,11,38,37.00
2016,03,13,11,39,30.60
2016,03,13,11,40,45.10
2016,03,13,11,41,40.20
2016,03,13,11,42,43.50
2016,03,13,11,43,41.80
2016,03,13,11,44,40.20
2016,03,13,11,45,32.20
2016,03,13,11,46,41.80
2016,03,13,11,47,30.60
2016,03,13,11,48,35.40
2016,03,13,11,49,40.20
2016,03,13,11,50,46.70
2016,03,13,11,51,43.50
2016,03,13,11,52,30.60
2016,03,13,11,53,45.10
2016,03,13,11,54,27.40
2016,03,13,11,55,35.40
2016,03,13,11,56,35.40
2016,03,13,11,57,40.20
2016,03,13,11,58,33.80
2016,03,13,11,59,35.40
2016,03,13,12,00,35.40
2016,03,13,12,01,35.40
2016,03,13,12,02,48.30
2016,03,13,12,03,43.50
2016,03,13,12,04,41.80
2016,03,13,12,05,38.60
2016,03,13,12,06,32.20
2016,03,13,12,07,25.70
2016,03,13,12,08,38.60
2016,03,13,12,09,45.10
2016,03,13,12,10,40.20
2016,03,13,12,11,37.00
2016,03,13,12,12,43.50
2016,03,13,12,13,32.20
2016,03,13,12,14,33.80
2016,03,13,12,15,40.20
2016,03,13,12,16,45.10
2016,03,13,12,17,35.40
2016,03,13,12,18,48.30
2016,03,13,12,19,43.50
2016,03,13,12,20,53.10
2016,03,13,12,21,56.30
2016,03,13,12,22,49.90
2016,03,13,12,23,53.10
2016,03,13,12,24,40.20
2016,03,13,12,25,40.20
2016,03,13,12,26,40.20
2016,03,13,12,27,51.50
2016,03,13,12,28,43.50
2016,03,13,12,29,46.70
2016,03,13,12,30,48.30
2016,03,13,12,31,48.30
2016,03,13,12,32,46.70
2016,03,13,12,33,46.70
2016,03,13,12,34,33.80
2016,03,13,12,35,38.60
2016,03,13,12,36,40.20
2016,03,13,12,37,35.40
2016,03,13,12,38,48.30
2016,03,13,12,39,53.10
2016,03,13,12,40,38.60
2016,03,13,12,41,38.60
2016,03,13,12,42,53.10
2016,03,13,12,43,30.60
2016,03,13,12,44,38.60
2016,03,13,12,45,41.80
2016,03,13,12,46,40.20
2016,03,13,12,47,25.70
2016,03,13,12,48,45.10
2016,03,13,12,49,43.50
2016,03,13,12,50,45.10
2016,03,13,12,51,46.70
2016,03,13,12,52,53.10
2016,03,13,12,53,51.50
2016,03,13,12,54,54.70
2016,03,13,12,55,41.80
2016,03,13,12,56,37.00
2016,03,13,12,57,45.10
2016,03,13,12,58,43.50
2016,03,13,12,59,32.20
2016,03,13,13,00,32.20
2016,03,13,13,01,30.60
2016,03,13,13,02,38.60
2016,03,13,13,03,51.50
2016,03,13,13,04,30.60
2016,03,13,13,05,37.00
2016,03,13,13,06,43.50
2016,03,13,13,07,33.80
2016,03,13,13,08,27.40
2016,03,13,13,09,38.60
2016,03,13,13,10,51.50
2016,03,13,13,11,49.90
2016,03,13,13,12,40.20
2016,03,13,13,13,45.10
2016,03,13,13,14,49.90
2016,03,13,13,15,43.50
2016,03,13,13,16,32.20
2016,03,13,13,17,53.10
2016,03,13,13,18,40.20
2016,03,13,13,19,51.50
2016,03,13,13,20,35.40
2016,03,13,13,21,37.00
2016,03,13,13,22,46.70
2016,03,13,13,23,29.00
2016,03,13,13,24,35.40
2016,03,13,13,25,43.50
2016,03,13,13,26,40.20
2016,03,13,13,27,54.70
2016,03,13,13,28,38.60
2016,03,13,13,29,40.20
2016,03,13,13,30,30.60
2016,03,13,13,31,37.00
2016,03,13,13,32,29.00
2016,03,13,13,33,33.80
2016,03,13,13,34,37.00
2016,03,13,13,35,35.40
2016,03,13,13,36,38.60
2016,03,13,13,37,37.00
2016,03,13,13,38,38.60
2016,03,13,13,39,33.80
2016,03,13,13,40,51.50
2016,03,13,13,41,40.20
2016,03,13,13,42,37.00
2016,03,13,13,43,38.60
2016,03,13,13,44,40.20
2016,03,13,13,45,27.40
2016,03,13,13,46,40.20
2016,03,13,13,47,35.40
2016,03,13,13,48,38.60
2016,03,13,13,49,45.10
2016,03,13,13,50,33.80
2016,03,13,13,51,24.20
2016,03,13,13,52,49.90
2016,03,13,13,53,48.30
2016,03,13,13,54,32.20
2016,03,13,13,55,48.30
2016,03,13,13,56,46.70
2016,03,13,13,57,37.00
2016,03,13,13,58,32.20
2016,03,13,13,59,38.60
2016,03,13,14,00,57.90
2016,03,13,14,01,38.60
2016,03,13,14,02,37.00
2016,03,13,14,03,46.70
2016,03,13,14,04,59.50
2016,03,13,14,05,41.80
2016,03,13,14,06,45.10
2016,03,13,14,07,45.10
2016,03,13,14,08,32.20
2016,03,13,14,09,33.80
2016,03,13,14,10,51.50
2016,03,13,14,11,53.10
2016,03,13,14,12,49.90
2016,03,13,14,13,35.40
2016,03,13,14,14,40.20
2016,03,13,14,15,38.60
2016,03,13,14,16,43.50
2016,03,13,14,17,40.20
2016,03,13,14,18,41.80
2016,03,13,14,19,41.80
2016,03,13,14,20,49.90
2016,03,13,14,21,53.10
2016,03,13,14,22,40.20
2016,03,13,14,23,40.20
2016,03,13,14,24,57.90
2016,03,13,14,25,51.50
2016,03,13,14,26,54.70
2016,03,13,14,27,51.50
2016,03,13,14,28,45.10
2016,03,13,14,29,45.10
2016,03,13,14,30,35.40
2016,03,13,14,31,46.70
2016,03,13,14,32,53.10
2016,03,13,14,33,41.80
2016,03,13,14,34,51.50
2016,03,13,14,35,46.70
2016,03,13,14,36,49.90
2016,03,13,14,37,53.10
2016,03,13,14,38,45.10
2016,03,13,14,39,37.00
2016,03,13,14,40,48.30
2016,03,13,14,41,40.20
2016,03,13,14,42,56.30
2016,03,13,14,43,53.10
2016,03,13,14,44,37.00
2016,03,13,14,45,53.10
2016,03,13,14,46,53.10
2016,03,13,14,47,48.30
2016,03,13,14,48,51.50
2016,03,13,14,49,53.10
2016,03,13,14,50,53.10
2016,03,13,14,51,45.10
2016,03,13,14,52,57.90
2016,03,13,14,53,41.80
2016,03,13,14,54,54.70
2016,03,13,14,55,46.70
2016,03,13,14,56,48.30
2016,03,13,14,57,41.80
2016,03,13,14,58,45.10
2016,03,13,14,59,51.50
2016,03,13,15,00,53.10
2016,03,13,15,01,53.10
2016,03,13,15,02,43.50
2016,03,13,15,03,62.70
2016,03,13,15,04,53.10
2016,03,13,15,05,37.00
2016,03,13,15,06,41.80
2016,03,13,15,07,53.10
2016,03,13,15,08,51.50
2016,03,13,15,09,53.10
2016,03,13,15,10,51.50
2016,03,13,15,11,54.70
2016,03,13,15,12,46.70
2016,03,13,15,13,48.30
2016,03,13,15,14,53.10
2016,03,13,15,15,53.10
2016,03,13,15,16,51.50
2016,03,13,15,17,51.50
2016,03,13,15,18,53.10
2016,03,13,15,19,48.30
2016,03,13,15,20,53.10
2016,03,13,15,21,51.50
2016,03,13,15,22,49.90
2016,03,13,15,23,62.70
2016,03,13,15,24,48.30
2016,03,13,15,25,46.70
2016,03,13,15,26,45.10
2016,03,13,15,27,49.90
2016,03,13,15,28,61.20
2016,03,13,15,29,53.10
2016,03,13,15,30,43.50
2016,03,13,15,31,54.70
2016,03,13,15,32,45.10
2016,03,13,15,33,45.10
2016,03,13,15,34,41.80
2016,03,13,15,35,40.20
2016,03,13,15,36,56.30
2016,03,13,15,37,40.20
2016,03,13,15,38,43.50
2016,03,13,15,39,46.70
2016,03,13,15,40,41.80
2016,03,13,15,41,46.70
2016,03,13,15,42,40.20
2016,03,13,15,43,41.80
2016,03,13,15,44,46.70
2016,03,13,15,45,35.40
2016,03,13,15,46,35.40
2016,03,13,15,47,35.40
2016,03,13,15,48,45.10
2016,03,13,15,49,33.80
2016,03,13,15,50,37.00
2016,03,13,15,51,41.80
2016,03,13,15,52,45.10
2016,03,13,15,53,40.20
2016,03,13,15,54,35.40
2016,03,13,15,55,32.20
2016,03,13,15,56,43.50
2016,03,13,15,57,38.60
2016,03,13,15,58,43.50
2016,03,13,15,59,45.10
2016,03,13,16,00,40.20
2016,03,13,16,01,41.80
2016,03,13,16,02,37.00
2016,03,13,16,03,30.60
2016,03,13,16,04,37.00
2016,03,13,16,05,33.80
2016,03,13,16,06,30.60
2016,03,13,16,07,35.40
2016,03,13,16,08,32.20
2016,03,13,16,09,32.20
2016,03,13,16,10,32.20
2016,03,13,16,11,35.40
2016,03,13,16,12,45.10
2016,03,13,16,13,40.20
2016,03,13,16,14,41.80
2016,03,13,16,15,41.80
2016,03,13,16,16,37.00
2016,03,13,16,17,33.80
2016,03,13,16,18,38.60
2016,03,13,16,19,32.20
2016,03,13,16,20,29.00
2016,03,13,16,21,37.00
2016,03,13,16,22,45.10
2016,03,13,16,23,41.80
2016,03,13,16,24,43.50
2016,03,13,16,25,38.60
2016,03,13,16,26,38.60
2016,03,13,16,27,35.40
2016,03,13,16,28,37.00
2016,03,13,16,29,38.60
2016,03,13,16,30,35.40
2016,03,13,16,31,35.40
2016,03,13,16,32,32.20
2016,03,13,16,33,48.30
2016,03,13,16,34,45.10
2016,03,13,16,35,40.20
2016,03,13,16,36,45.10
2016,03,13,16,37,41.80
2016,03,13,16,38,35.40
2016,03,13,16,39,41.80
2016,03,13,16,40,37.00
2016,03,13,16,41,37.00
2016,03,13,16,42,41.80
2016,03,13,16,43,41.80
2016,03,13,16,44,40.20
2016,03,13,16,45,51.50
2016,03,13,16,46,46.70
2016,03,13,16,47,51.50
2016,03,13,16,48,53.10
2016,03,13,16,49,48.30
2016,03,13,16,50,46.70
2016,03,13,16,51,57.90
2016,03,13,16,52,54.70
2016,03,13,16,53,46.70
2016,03,13,16,54,45.10
2016,03,13,16,55,43.50
2016,03,13,16,56,41.80
2016,03,13,16,57,48.30
2016,03,13,16,58,57.90
2016,03,13,16,59,54.70
2016,03,13,17,00,49.90
2016,03,13,17,01,57.90
2016,03,13,17,02,48.30
2016,03,13,17,03,64.40
2016,03,13,17,04,43.50
2016,03,13,17,05,49.90
2016,03,13,17,06,53.10
2016,03,13,17,07,46.70
2016,03,13,17,08,59.50
2016,03,13,17,09,53.10
2016,03,13,17,10,40.20
2016,03,13,17,11,38.60
2016,03,13,17,12,40.20
2016,03,13,17,13,46.70
2016,03,13,17,14,43.50
2016,03,13,17,15,49.90
2016,03,13,17,16,45.10
2016,03,13,17,17,49.90
2016,03,13,17,18,53.10
2016,03,13,17,19,62.70
2016,03,13,17,20,53.10
2016,03,13,17,21,57.90
2016,03,13,17,22,62.70
2016,03,13,17,23,61.20
2016,03,13,17,24,40.20
2016,03,13,17,25,43.50
2016,03,13,17,26,51.50
2016,03,13,17,27,53.10
2016,03,13,17,28,48.30
2016,03,13,17,29,64.40
2016,03,13,17,30,53.10
2016,03,13,17,31,45.10
2016,03,13,17,32,67.60
2016,03,13,17,33,78.80
2016,03,13,17,34,75.60
2016,03,13,17,35,53.10
2016,03,13,17,36,45.10
2016,03,13,17,37,59.50
2016,03,13,17,38,56.30
2016,03,13,17,39,48.30
2016,03,13,17,40,46.70
2016,03,13,17,41,53.10
2016,03,13,17,42,49.90
2016,03,13,17,43,48.30
2016,03,13,17,44,59.50
2016,03,13,17,45,53.10
2016,03,13,17,46,51.50
2016,03,13,17,47,48.30
2016,03,13,17,48,41.80
2016,03,13,17,49,51.50
2016,03,13,17,50,38.60
2016,03,13,17,51,49.90
2016,03,13,17,52,46.70
2016,03,13,17,53,54.70
2016,03,13,17,54,49.90
2016,03,13,17,55,62.70
2016,03,13,17,56,41.80
2016,03,13,17,57,45.10
2016,03,13,17,58,32.20
2016,03,13,17,59,20.90
2016,03,13,18,00,43.50
2016,03,13,18,01,45.10
2016,03,13,18,02,40.20
2016,03,13,18,03,49.90
2016,03,13,18,04,49.90
2016,03,13,18,05,46.70
2016,03,13,18,06,35.40
2016,03,13,18,07,43.50
2016,03,13,18,08,40.20
2016,03,13,18,09,48.30
2016,03,13,18,10,45.10
2016,03,13,18,11,37.00
2016,03,13,18,12,49.90
2016,03,13,18,13,51.50
2016,03,13,18,14,45.10
2016,03,13,18,15,35.40
2016,03,13,18,16,40.20
2016,03,13,18,17,64.40
2016,03,13,18,18,45.10
2016,03,13,18,19,64.40
2016,03,13,18,20,48.30
2016,03,13,18,21,43.50
2016,03,13,18,22,45.10
2016,03,13,18,23,51.50
2016,03,13,18,24,38.60
2016,03,13,18,25,46.70
2016,03,13,18,26,43.50
2016,03,13,18,27,37.00